STARLINK-35521, 65916

Orbit data source: Space-Track

STARLINK-35521, 65916 is a payload satellite owned by SpaceX/Seattle (US) in LEO that was launched on Wed, 08 Oct 2025 UTC via an FALCON 9 launch vehicle from the Air Force Western Test Range (AFWTR). Payload-class satellites include a variety of spacecraft equipped with specific instruments for various scientific and technological missions. These include communications satellites like Starlink; space stations such as the ISS; scientific satellites like the Hubble; Earth observation satellites from companies like Planet Labs, Umbra, and HawkEye 360; GPS; miniature CubeSats for education and research; and military/defense satellites.

Loading next visibility...
Identifier
65916, 2025-225G
Orbit
LEO
Country
Flag of USUS
Related business
Manufacturer
SpaceX/Seattle
Mission
Operational Commercial Communications
Bus & Motor
STARLINK V2MO, Unknown motor
Mass
575 kg wet, ~530 kg dry
Launch date (UTC)
2025-10-08 (8 months ago)
Launch vehicle
FALCON 9
Launch site
Air Force Western Test Range (AFWTR)
Object type
Payload
Rocket body
Debris
Shape & HBR
Box + 2 Pan, 17.7 m
Radar Cross Section
36.964 m², Large (>1 m²)

Expand to show TLE details & history
Last TLE update: 8 hours ago

TLE from 8 hours ago
0 STARLINK-35521
1 65916U 25225G   26151.35474567  .00027445  00000-0  93525-3 0  9998
2 65916  53.1580 141.7718 0001011  87.1003 273.0113 15.30202730 37068
Epoch: 2026-05-31T08:30Z
TLE epoch observation values (Epoch: 2026-05-31T08:30:50.025Z)
Latitude
-0.00008°
Longitude
125.20569°
Altitude
476.07 km
Speed
7.629 km/s
True Right ascension
09h 27m 05s
True Declination
0° 00' 00"
Sunlit
Object was in daylight at epoch
Visualization orbit readout
Latitude
Unknown
Longitude
Unknown
Altitude
Unknown
Speed
Unknown
Apparent Right ascension
Unknown
Apparent Declination
Unknown
Sunlit
N/A
Visualization observer readout
Local Sidereal Time
02:28:11
Azimuth
Unknown
Elevation
Unknown
Doppler factor
Unknown
Orbital elements
Apogee altitude
476.157 km
Perigee altitude
474.771 km
Semi-major axis
6,853.601 km
Eccentricity
0.0001
Inclination
53.158°
RAAN
141.7718°
Arg. of periapsis
87.1003°
True anomaly
272.99973°
Mean anomaly
273.0113°
Eccentric anomaly
273.00552°
Mean motion
3.8253 °/min
Orbital period
94.11 mins
BSTAR
0.00093525
Loading maneuver chart data...
Computing Atmospheric mass density...
Loading historical data...
Loading historical data...
Loading historical data...
Loading historical data...
Loading historical data...
Loading historical data...
Loading historical data...

Documentation

Showing up to 5 results
|